[[{"header":{"parameterUnit":"m.s-1","parameterCategory":1,"la1":30.2991,"la2":30.254,"lo1":-89.0895,"lo2":-89.0444,"dy":0.0017,"dx":0.0017,"nx":28,"ny":28,"refTime":"2024-05-07T03:00:00:Z","depth":0,"parameterNumber":2,"parameterNumberName":"U-component_of_WINDS"},"data":[0,0,0,0,0,0,0,0,0,0,0,0,0,0,0,0,0,0,0,0,0,0,0,0,0,0,0,0,0,0,0,0,0,0,0,0,0,0,0,0,0,0,0,0,0,0,0,0,0,0,0,0,0,0,0,0,0,0,-0.3733,-0.3732,0,-0.3677,-0.3677,-0.3676,-0.3645,-0.3645,-0.3645,-0.3645,-0.3588,-0.3586,-0.3585,0,0,0,0,0,0,0,0,0,0,0,0,0,-0.3814,-0.3812,-0.3733,-0.3732,-0.3732,-0.3677,-0.3677,-0.3676,-0.3645,-0.3645,-0.3645,-0.3645,-0.3588,-0.3587,-0.3585,0,0,0,0,0,0,0,0,0,0,0,0,0,-0.377,-0.3812,-0.3733,-0.371,-0.3707,-0.3677,-0.3677,-0.3676,-0.3645,-0.3645,-0.3645,-0.3645,-0.3589,-0.3587,-0.3585,-0.3574,0,0,-0.3578,-0.3577,0,0,0,0,0,0,0,0,-0.3773,-0.3767,-0.3714,-0.3711,-0.3708,-0.3668,-0.3684,-0.3641,-0.3645,-0.3669,-0.3645,-0.3645,-0.3615,-0.361,-0.36,-0.3571,-0.3569,-0.3578,-0.3576,-0.3576,-0.3575,0,0,0,0,0,0,0,-0.3776,-0.377,-0.3711,-0.3713,-0.371,-0.3702,-0.3696,-0.3676,-0.3643,-0.3667,-0.3664,-0.3658,-0.3613,-0.3602,-0.3599,-0.3568,-0.3578,-0.3576,-0.3575,-0.3574,-0.3528,-0.3528,0,0,0,0,0,0,-0.3783,-0.3772,-0.3713,-0.3709,-0.3741,-0.3701,-0.3694,-0.3681,-0.3643,-0.3637,-0.3658,-0.3657,-0.3606,-0.3601,-0.3596,-0.3581,-0.3576,-0.3574,-0.3572,-0.3528,-0.3528,-0.3528,0,0,0,0,0,0,-0.3784,-0.3777,-0.3715,-0.374,-0.3732,-0.37,-0.3686,-0.368,-0.3669,-0.3637,-0.3631,-0.3653,-0.3606,-0.3599,-0.358,-0.3579,-0.3573,-0.3571,-0.3528,-0.3528,-0.3528,-0.3552,0,0,0,0,0,0,-0.3787,-0.3778,-0.3774,-0.374,-0.373,-0.3699,-0.3685,-0.3679,-0.3666,-0.3663,-0.3631,-0.3625,-0.3605,-0.3583,-0.3578,-0.3576,-0.3569,-0.3528,-0.3528,-0.3528,-0.3551,-0.3552,-0.3554,0,0,0,0,0,-0.379,-0.3782,-0.3774,-0.3767,-0.3724,-0.3699,-0.3693,-0.3671,-0.3666,-0.3661,-0.364,-0.3626,-0.358,-0.3581,-0.3575,-0.3573,-0.3528,-0.3528,-0.3528,-0.355,-0.3552,-0.3554,0,0,0,0,0,0,-0.3816,-0.3777,-0.3767,-0.3749,-0.3728,-0.3694,-0.3687,-0.3674,-0.3653,-0.3652,-0.3625,-0.3618,-0.3601,-0.3585,-0.3587,-0.3561,-0.3553,-0.3551,-0.3571,-0.3573,-0.3575,-0.3579,-0.3567,0,0,0,0,0,-0.382,-0.3803,-0.377,-0.3757,-0.3747,-0.3719,-0.3707,-0.3692,-0.3669,-0.3659,-0.3637,-0.3615,-0.3596,-0.3584,-0.3564,-0.3549,-0.3541,-0.3544,-0.3546,-0.3547,-0.3546,-0.3537,-0.3538,-0.3529,-0.3529,-0.3529,0,0,-0.3827,-0.3804,-0.3795,-0.3762,-0.3743,-0.3727,-0.3711,-0.3694,-0.3682,-0.3657,-0.3637,-0.362,-0.3594,-0.3576,-0.3568,-0.3563,-0.3547,-0.3547,-0.3549,-0.3547,-0.3538,-0.3538,-0.3539,-0.3529,-0.3529,-0.3529,0,0,-0.3832,-0.3813,-0.38,-0.3782,-0.3755,-0.3736,-0.3733,-0.3702,-0.369,-0.367,-0.3651,-0.3636,-0.3603,-0.3585,-0.3572,-0.3572,-0.3558,-0.3566,-0.3574,-0.3566,-0.3567,-0.3567,-0.3567,-0.3567,-0.3566,-0.3566,-0.3566,0,-0.3845,-0.3818,-0.3795,-0.3779,-0.3765,-0.3742,-0.3729,-0.3713,-0.3681,-0.3672,-0.3667,-0.3626,-0.3607,-0.3585,-0.3585,-0.3575,-0.3571,-0.3569,-0.3568,-0.3569,-0.3569,-0.3568,-0.3568,-0.3567,-0.3567,-0.3566,-0.3566,0,-0.3835,-0.3817,-0.381,-0.378,-0.3765,-0.3751,-0.3726,-0.3714,-0.37,-0.3682,-0.3663,-0.3639,-0.3614,-0.3608,-0.3595,-0.3585,-0.3583,-0.3574,-0.3565,-0.3571,-0.357,-0.357,-0.3568,-0.3568,-0.3568,-0.3567,0,0,-0.3854,-0.3811,-0.3809,-0.3795,-0.3764,-0.375,-0.3735,-0.3711,-0.3701,-0.368,-0.3667,-0.3641,-0.3632,-0.3617,-0.3602,-0.3594,-0.3596,-0.3586,-0.3585,-0.3588,-0.3584,-0.3591,-0.3591,-0.3587,-0.3587,-0.3587,-0.3586,0,-0.3854,-0.3825,-0.3804,-0.3784,-0.3767,-0.3746,-0.3733,-0.3713,-0.3696,-0.368,-0.3662,-0.3644,-0.3634,-0.3625,-0.3617,-0.3597,-0.3594,-0.3597,-0.3574,-0.3574,-0.3581,-0.359,-0.3597,-0.3597,-0.3585,-0.3585,-0.3585,0,-0.385,-0.3829,-0.3807,-0.3778,-0.3771,-0.3759,-0.3736,-0.3721,-0.3698,-0.3687,-0.3671,-0.3655,-0.3638,-0.3632,-0.3609,-0.3612,-0.3601,-0.359,-0.359,-0.3586,-0.3579,-0.3586,-0.3597,-0.3597,-0.3585,-0.3585,-0.3585,0,-0.3865,-0.3833,-0.3815,-0.3804,-0.377,-0.3762,-0.3748,-0.3725,-0.3712,-0.3692,-0.3684,-0.3662,-0.365,-0.3634,-0.3613,-0.3611,-0.3593,-0.3585,-0.3583,-0.3584,-0.3579,-0.358,-0.3588,-0.3574,-0.3574,-0.3574,-0.3574,0,-0.3867,-0.3854,-0.3822,-0.3811,-0.3797,-0.3773,-0.376,-0.3743,-0.3723,-0.3709,-0.369,-0.3677,-0.365,-0.3635,-0.3618,-0.3602,-0.3597,-0.3588,-0.3583,-0.3589,-0.359,-0.3581,-0.358,-0.3574,-0.3574,-0.3574,-0.3574,0,-0.3882,-0.3859,-0.3839,-0.3809,-0.3801,-0.3792,-0.3766,-0.3755,-0.3738,-0.372,-0.3715,-0.3688,-0.3669,-0.3647,-0.362,-0.3609,-0.3594,-0.3588,-0.3602,-0.3599,-0.3599,-0.3599,-0.3601,-0.36,-0.3587,-0.3587,-0.3588,0,-0.3884,-0.3874,-0.3843,-0.3832,-0.3818,-0.3801,-0.3788,-0.3765,-0.3752,-0.3726,-0.3718,-0.3697,-0.368,-0.365,-0.3628,-0.3608,-0.3601,-0.3603,-0.3598,-0.3604,-0.3601,-0.3601,-0.36,-0.3604,-0.3605,-0.3605,-0.3605,0,-0.3891,-0.388,-0.3862,-0.3841,-0.3826,-0.3808,-0.3789,-0.3781,-0.3755,-0.3742,-0.3722,-0.3708,-0.3681,-0.3661,-0.3638,-0.3623,-0.361,-0.3607,-0.3605,-0.3611,-0.3619,-0.3615,-0.3605,-0.3607,-0.3607,-0.3606,-0.3606,-0.3606,-0.3899,-0.3889,-0.3866,-0.3846,-0.383,-0.3813,-0.3801,-0.3783,-0.3766,-0.3742,-0.373,-0.371,-0.3688,-0.3656,-0.3642,-0.3627,-0.3622,-0.362,-0.3619,-0.3619,-0.3621,-0.3622,-0.3623,-0.3623,-0.3623,-0.3622,-0.3622,0,-0.3905,-0.3889,-0.3871,-0.3845,-0.3831,-0.3819,-0.3798,-0.3787,-0.3769,-0.375,-0.3733,-0.3711,-0.3691,-0.3668,-0.3648,-0.364,-0.3633,-0.3635,-0.3635,-0.3632,-0.3626,-0.3629,-0.3641,-0.3641,-0.3641,-0.3641,-0.3641,-0.3641,-0.3906,-0.3888,-0.3876,-0.385,-0.3834,-0.3815,-0.3804,-0.3788,-0.3772,-0.3748,-0.3732,-0.3717,-0.3697,-0.3674,-0.3656,-0.365,-0.3643,-0.3647,-0.3639,-0.3634,-0.3632,-0.3631,-0.3634,-0.3646,-0.3646,-0.3647,-0.3647,-0.3647]},{"header":{"parameterUnit":"m.s-1","parameterCategory":1,"la1":30.2991,"la2":30.254,"lo1":-89.0895,"lo2":-89.0444,"dy":0.0017,"dx":0.0017,"nx":28,"ny":28,"refTime":"2024-05-07T03:00:00:Z","depth":0,"parameterNumber":3,"parameterNumberName":"V-component_of_WINDS"},"data":[0,0,0,0,0,0,0,0,0,0,0,0,0,0,0,0,0,0,0,0,0,0,0,0,0,0,0,0,0,0,0,0,0,0,0,0,0,0,0,0,0,0,0,0,0,0,0,0,0,0,0,0,0,0,0,0,0,0,6.376,6.376,0,6.3762,6.3762,6.3762,6.3755,6.3755,6.3755,6.3754,6.3752,6.3752,6.3752,0,0,0,0,0,0,0,0,0,0,0,0,0,6.3748,6.3748,6.376,6.376,6.3761,6.3762,6.3762,6.3762,6.3755,6.3755,6.3755,6.3754,6.3752,6.3752,6.3752,0,0,0,0,0,0,0,0,0,0,0,0,0,6.3752,6.3748,6.376,6.3757,6.3757,6.3762,6.3762,6.3762,6.3755,6.3755,6.3754,6.3754,6.3752,6.3752,6.3752,6.3759,0,0,6.3752,6.3752,0,0,0,0,0,0,0,0,6.3752,6.3752,6.3758,6.3757,6.3757,6.3758,6.3757,6.3761,6.3755,6.3756,6.3754,6.3754,6.3754,6.3754,6.3755,6.3759,6.3759,6.3752,6.3753,6.3753,6.3753,0,0,0,0,0,0,0,6.3751,6.3752,6.3761,6.3758,6.3757,6.3755,6.3755,6.3758,6.3756,6.3756,6.3755,6.3756,6.3754,6.3754,6.3754,6.3759,6.3752,6.3753,6.3753,6.3753,6.377,6.3771,0,0,0,0,0,0,6.3752,6.3752,6.3761,6.3761,6.3754,6.3755,6.3755,6.3758,6.3756,6.3756,6.3756,6.3755,6.3754,6.3754,6.3754,6.3764,6.3753,6.3753,6.3753,6.377,6.377,6.3771,0,0,0,0,0,0,6.3752,6.3753,6.3761,6.3756,6.3757,6.3756,6.3759,6.3758,6.3759,6.3757,6.3756,6.3757,6.3754,6.3754,6.3759,6.3763,6.3753,6.3753,6.3769,6.377,6.3771,6.3781,0,0,0,0,0,0,6.3751,6.3753,6.3756,6.3757,6.3758,6.3766,6.3759,6.3759,6.376,6.3759,6.3758,6.3757,6.3754,6.3758,6.3759,6.3763,6.3753,6.3769,6.377,6.377,6.3781,6.3782,6.3784,0,0,0,0,0,6.3751,6.3758,6.3756,6.3757,6.3762,6.3766,6.3767,6.3764,6.376,6.3763,6.3762,6.3757,6.3763,6.3759,6.3759,6.3764,6.3769,6.3769,6.377,6.378,6.3782,6.3784,0,0,0,0,0,0,6.3755,6.3757,6.3756,6.3763,6.3765,6.3765,6.3768,6.3766,6.3767,6.3766,6.3762,6.3762,6.3767,6.3766,6.3761,6.3771,6.3765,6.3766,6.3772,6.3774,6.3776,6.3776,6.3753,0,0,0,0,0,6.3757,6.3762,6.3763,6.3769,6.3771,6.377,6.3771,6.377,6.377,6.3771,6.3769,6.3769,6.3771,6.3773,6.3774,6.3781,6.378,6.3784,6.3786,6.3787,6.3788,6.3792,6.3794,6.3773,6.3773,6.3773,0,0,6.3761,6.3763,6.3766,6.377,6.3771,6.3776,6.377,6.3774,6.3777,6.3771,6.3776,6.3775,6.3775,6.3781,6.3783,6.378,6.3794,6.3788,6.3789,6.3789,6.3793,6.3795,6.3797,6.3774,6.3774,6.3774,0,0,6.377,6.3772,6.3778,6.378,6.3783,6.3783,6.3784,6.3785,6.3785,6.3791,6.3786,6.3789,6.3792,6.3793,6.3794,6.3806,6.3802,6.3806,6.3814,6.3819,6.3821,6.3822,6.3827,6.3829,6.3807,6.3807,6.3807,0,6.3774,6.3781,6.3781,6.3787,6.3789,6.3786,6.3792,6.3793,6.3796,6.3797,6.3794,6.3799,6.3799,6.3806,6.3809,6.3809,6.3811,6.3806,6.3821,6.3822,6.3823,6.3828,6.383,6.3808,6.3808,6.3808,6.3808,0,6.3786,6.3792,6.3796,6.3802,6.3804,6.381,6.381,6.3813,6.3812,6.3812,6.3817,6.3817,6.3819,6.3821,6.3818,6.3828,6.3826,6.3822,6.3815,6.3826,6.3831,6.3832,6.3809,6.3808,6.3808,6.3808,0,0,6.3796,6.3804,6.3805,6.3808,6.3812,6.3816,6.3822,6.3826,6.3829,6.3831,6.3836,6.384,6.3837,6.3838,6.3835,6.384,6.3851,6.3835,6.3835,6.3839,6.3862,6.3866,6.3868,6.3848,6.3849,6.3849,6.3863,0,6.3806,6.3818,6.3819,6.383,6.3835,6.3833,6.3838,6.3841,6.3842,6.3846,6.3845,6.3849,6.3844,6.3845,6.3849,6.3849,6.3855,6.3847,6.3852,6.3852,6.3853,6.387,6.3873,6.3886,6.3864,6.3865,6.3865,0,6.3818,6.3824,6.3836,6.3841,6.3844,6.3849,6.3854,6.3858,6.3861,6.3861,6.3864,6.3861,6.3867,6.3861,6.3869,6.3863,6.3865,6.3866,6.3866,6.3866,6.3859,6.3871,6.389,6.3892,6.3867,6.3867,6.3867,0,6.3826,6.3836,6.3845,6.3847,6.3854,6.3857,6.386,6.3863,6.3866,6.387,6.3872,6.3876,6.3878,6.3881,6.388,6.3875,6.3888,6.3881,6.3888,6.3888,6.3891,6.3891,6.3911,6.3892,6.3892,6.3892,6.3891,0,6.3837,6.3844,6.3849,6.3854,6.3863,6.3864,6.3872,6.3874,6.3877,6.3882,6.388,6.3885,6.3883,6.3888,6.3887,6.3894,6.3895,6.3895,6.3894,6.3895,6.3895,6.3896,6.3895,6.3892,6.3892,6.3892,6.3892,0,6.3846,6.3849,6.3859,6.3865,6.3867,6.3873,6.3878,6.3883,6.3884,6.3891,6.3893,6.3895,6.39,6.39,6.3905,6.3904,6.3914,6.3912,6.3913,6.3913,6.392,6.392,6.3942,6.3945,6.3924,6.3924,6.3924,0,6.3852,6.3859,6.3867,6.3872,6.3875,6.3882,6.3886,6.3888,6.3892,6.3898,6.3902,6.3908,6.3913,6.3922,6.3922,6.3927,6.3926,6.3933,6.3926,6.3927,6.3927,6.3927,6.3928,6.3934,6.3935,6.3935,6.3935,0,6.3864,6.3867,6.3874,6.3882,6.3888,6.3894,6.39,6.3903,6.3905,6.391,6.3917,6.3921,6.3929,6.3935,6.3939,6.3941,6.3938,6.3938,6.3939,6.394,6.3941,6.3942,6.3918,6.3937,6.3937,6.3936,6.3936,6.3936,6.3873,6.3879,6.3887,6.3895,6.39,6.3906,6.3912,6.3916,6.3922,6.393,6.393,6.3938,6.3942,6.3949,6.3951,6.3957,6.3954,6.3956,6.3957,6.3958,6.3959,6.3941,6.3958,6.3957,6.3957,6.3957,6.3957,0,6.3885,6.3891,6.3899,6.3909,6.3916,6.3915,6.3922,6.3927,6.3935,6.394,6.3946,6.3955,6.3961,6.3964,6.397,6.3974,6.3973,6.3976,6.3976,6.3976,6.3961,6.3959,6.3977,6.3977,6.3977,6.3977,6.3977,6.3977,6.3893,6.3904,6.3908,6.3921,6.3926,6.3936,6.394,6.3946,6.395,6.3961,6.3967,6.397,6.3974,6.3981,6.3987,6.3988,6.399,6.3993,6.3993,6.3979,6.3977,6.3975,6.3973,6.3994,6.3994,6.4008,6.4008,6.4008]}]]